Location: Chochol
(49.7771°N, 14.9780°E)
Time: 07:30:07
(UTC+00:00)

Cosmos 676 Rocket - Pass Details

Date: 09 April 2020
Orbit: 755 x 784 km, 74.0° (Epoch: 01 June)

Event Time Altitude Azimuth Distance (km) Brightness Sun altitude
Rises 19:07:11 0° 193° (SSW) 3,242 7.1 -13.2°
Reaches altitude 10° 19:09:34 10° 191° (SSW) 2,315 6.3 -13.5°
Maximum altitude 19:14:47 68° 110° (ESE) 829 3.9 -14.2°
Drops below altitude 10° 19:19:59 10° 28° (NNE) 2,313 6.5 -14.9°
Sets 19:22:22 0° 26° (NNE) 3,239 7.3 -15.2°
